FW1603 Weather Reports


Display with metric or nautical units.
time (UTC)temp
F
wind
direction
speed
MPH
gust
MPH
rain 1hr
in
rain 24hr
in
rain mn
in
humidity
%
barometer
mb
20260510134551 73 66 0.0 1.0 0.00 0.40 0.00 1 1015.5
20260510133038 72 165 0.0 1.0 0.00 0.40 0.00 1 1015.5
20260510131534 72 135 0.0 0.0 0.00 0.40 0.00 1 1015.2
20260510130030 72 306 0.0 0.0 0.00 0.40 0.00 1 1015.2
20260510124525 71 306 0.0 0.0 0.00 0.40 0.00 1 1015.1
20260510123022 70 306 0.0 0.0 0.00 0.40 0.00 1 1014.9
20260510121517 69 148 0.0 0.0 0.00 0.40 0.00 1 1014.7
20260510120012 0 0.0 0.0 0.00 0.40 0.00 1014.5
20260510114508 0 0.0 0.0 0.00 0.40 0.00 1014.3
20260510113004 0 0.0 0.0 0.00 0.40 0.00 1014.1
20260510111559 0 0.0 0.0 0.00 0.40 0.00 1013.9
20260510110058 0 0.0 0.0 0.00 0.40 0.00 1013.6
20260510104607 0 0.0 0.0 0.00 0.40 0.00 1013.4
20260510103052 0 0.0 0.0 0.00 0.40 0.00 1013.3
20260510101544 0 0.0 0.0 0.00 0.40 0.00 1013.1
20260510100050 0 0.0 0.0 0.00 0.40 0.00 1012.9
20260510094543 0 0.0 0.0 0.00 0.40 0.00 1012.9
20260510093030 0 0.0 0.0 0.00 0.40 0.00 1012.7
20260510091525 0 0.0 0.0 0.00 0.40 0.00 1012.7
20260510090027 0 0.0 0.0 0.00 0.40 0.00 1012.6
20260510084517 68 267 0.0 0.0 0.00 0.40 0.00 1 1012.4
20260510083013 68 267 0.0 0.0 0.00 0.40 0.00 1 1012.2
20260510081508 69 266 0.0 0.0 0.00 0.40 0.00 1 1012.1
20260510080007 69 267 0.0 0.0 0.00 0.40 0.00 1 1012.0
20260510074624 69 266 0.0 0.0 0.00 0.40 0.00 1 1012.1
20260510073055 69 266 0.0 0.0 0.00 0.40 0.00 1 1012.1
20260510071558 69 266 0.0 0.0 0.00 0.40 0.00 1 1012.1
20260510070045 69 266 0.0 0.0 0.00 0.40 0.00 1 1012.1
20260510064559 69 266 0.0 0.0 0.00 0.40 0.00 1 1012.2
20260510063037 69 267 0.0 0.0 0.00 0.40 0.00 1 1012.2
20260510061532 69 267 0.0 0.0 0.00 0.40 0.00 1 1012.4
20260510060033 69 267 0.0 0.0 0.00 0.40 0.00 1 1012.5
20260510054526 69 266 0.0 0.0 0.00 0.40 0.00 1 1012.6
20260510053018 69 290 0.0 0.0 0.00 0.40 0.00 1 1012.7
20260510051517 68 290 0.0 0.0 0.00 0.40 0.00 1 1012.9
20260510050008 68 290 0.0 0.0 0.00 0.40 0.00 1 1013.3
20260510044504 68 290 0.0 0.0 0.00 0.40 0.00 1 1013.5
20260510043106 68 290 0.0 0.0 0.00 0.40 0.00 1 1013.7
20260510041610 68 290 0.0 0.0 0.00 0.40 0.00 1 1014.0
20260510040051 68 290 0.0 0.0 0.00 0.40 0.00 1 1014.0
20260510034547 68 290 0.0 0.0 0.00 0.40 0.40 1 1014.0
20260510033045 68 290 0.0 0.0 0.00 0.40 0.40 1 1013.9
20260510031543 69 290 0.0 0.0 0.00 0.40 0.40 1 1014.0
20260510030048 69 290 0.0 0.0 0.00 0.40 0.40 1 1013.9
20260510024552 69 290 0.0 0.0 0.00 0.40 0.40 1 1013.8
20260510023041 69 290 0.0 0.0 0.00 0.40 0.40 1 1013.8
20260510021541 69 290 0.0 0.0 0.00 0.40 0.40 1 1013.5
20260510020048 69 290 0.0 0.0 0.00 0.40 0.40 1 1013.3
20260510014541 69 290 0.0 0.0 0.00 0.40 0.40 1 1012.7
20260510013046 69 290 0.0 0.0 0.00 0.40 0.40 1 1012.8
20260510011540 69 290 0.0 0.0 0.00 0.40 0.40 1 1012.4
20260510010055 69 290 0.0 0.0 0.00 0.40 0.40 1 1012.6
20260510004532 69 290 0.0 0.0 0.00 0.40 0.40 1 1012.2
20260510003032 69 290 0.0 0.0 0.00 0.40 0.40 1 1012.0
20260510001526 69 290 0.0 0.0 0.01 0.40 0.40 1 1012.3
20260510000020 69 290 0.0 0.0 0.04 0.40 0.40 1 1012.3
20260509234515 69 336 0.0 0.0 0.07 0.40 0.40 1 1012.1
20260509233011 70 337 0.0 1.0 0.10 0.40 0.40 1 1011.9
20260509231508 70 298 0.0 0.0 0.09 0.39 0.39 1 1012.7
20260509230002 71 298 0.0 1.0 0.07 0.36 0.36 1 1013.0
20260509224558 71 180 0.0 0.0 0.05 0.33 0.33 1 1012.9
20260509223054 71 249 0.0 0.0 0.02 0.30 0.30 1 1013.0
20260509221605 71 300 0.0 1.0 0.02 0.30 0.30 1 1012.7
20260509220058 72 223 0.0 0.0 0.01 0.28 0.28 1 1012.6
20260509214543 72 225 0.0 1.0 0.00 0.28 0.28 1 1012.3
20260509213037 73 306 0.0 1.0 0.03 0.28 0.28 1 1012.0
20260509211532 72 279 0.0 1.0 0.13 0.28 0.28 1 1012.0
20260509210028 72 247 0.0 1.0 0.13 0.28 0.28 1 1012.0
20260509204523 73 177 0.0 3.0 0.13 0.31 0.28 4 1012.2
20260509203019 74 177 1.0 3.0 0.10 0.28 0.25 13 1011.9
20260509201515 76 345 0.0 3.0 0.00 0.18 0.15 4 1011.6
20260509200010 76 244 0.0 2.0 0.04 0.18 0.15 1 1011.6
20260509194508 76 187 0.0 1.0 0.14 0.26 0.15 1 1011.8
20260509193002 76 200 0.0 2.0 0.14 0.26 0.15 1 1011.7
20260509191613 76 292 0.0 1.0 0.14 0.26 0.15 11 1011.8
20260509190110 77 313 0.0 5.0 0.10 0.22 0.11 30 1012.3
20260509184548 77 183 0.0 6.0 0.01 0.12 0.01 51 1012.2
20260509183045 77 230 0.0 7.0 0.01 0.12 0.01 51 1012.0
20260509181540 78 176 2.0 6.0 0.01 0.12 0.01 59 1012.2
20260509180035 79 172 1.0 5.0 0.01 0.12 0.01 67 1012.0
20260509174531 82 171 3.0 7.0 0.00 0.11 0.00 71 1012.0
20260509173031 83 306 1.0 4.0 0.00 0.11 0.00 69 1012.1
20260509171525 82 214 1.0 6.0 0.00 0.11 0.00 70 1012.4
20260509170027 82 72 1.0 3.0 0.00 0.11 0.00 70 1012.4
20260509164513 81 182 2.0 4.0 0.00 0.11 0.00 71 1012.6
20260509163010 81 286 1.0 4.0 0.00 0.11 0.00 71 1012.6
20260509161505 80 234 0.0 3.0 0.00 0.11 0.00 70 1012.7
20260509160100 80 265 0.0 2.0 0.00 0.11 0.00 67 1012.6
20260509154557 79 187 0.0 2.0 0.00 0.11 0.00 61 1012.5
20260509153051 78 187 0.0 1.0 0.00 0.11 0.00 54 1012.3
20260509151548 77 178 0.0 1.0 0.00 0.11 0.00 44 1012.4
20260509150042 76 190 1.0 3.0 0.00 0.11 0.00 38 1012.6
20260509144545 75 240 1.0 3.0 0.00 0.11 0.00 29 1012.6
20260509143034 74 169 0.0 3.0 0.00 0.11 0.00 15 1012.8
20260509141535 73 137 0.0 2.0 0.00 0.11 0.00 12 1012.9
20260509140033 72 157 0.0 4.0 0.00 0.11 0.00 6 1012.8